Location: Santa Clara
(37.3540°N, 121.9540°W)
Time: 13:47:15
(UTC-07:00)

Tiros 1 despin weight - All Passes

Search period start: 24 May 2022 00:00
Search period end: 03 June 2022 00:00
Orbit: 592 x 639 km, 48.2° (Epoch: 24 May)

Date Brightness Start Highest point End Pass type
(mag) Time Alt. Az. Time Alt. Az. Time Alt. Az.
24 May - 00:36:25 10° NW 00:40:22 31° NNE 00:44:18 10° E visible
24 May - 02:17:44 10° WNW 02:22:06 65° SW 02:26:27 10° SE visible
24 May - 18:04:39 10° S 18:08:09 22° SE 18:11:38 10° E daylight
24 May - 19:44:51 10° WSW 19:49:21 66° NNW 19:53:47 10° NE daylight
24 May - 21:27:48 10° WNW 21:31:26 23° NNW 21:35:02 10° NE visible
24 May - 23:10:38 10° NW 23:14:02 21° N 23:17:25 10° ENE visible
25 May - 00:52:01 10° NW 00:56:18 47° NNE 01:00:33 10° ESE visible
25 May - 02:33:44 10° WNW 02:37:40 32° SW 02:41:35 10° SSE night (unlit)
25 May - 18:19:21 10° SSW 18:23:39 44° SE 18:27:55 10° ENE daylight
25 May - 20:00:57 10° W 20:05:11 40° NNW 20:09:23 10° NE daylight
25 May - 21:44:12 10° NW 21:47:33 20° N 21:50:53 10° NE visible
25 May - 23:26:25 10° NW 23:30:08 26° NNE 23:33:50 10° ENE visible
26 May - 01:07:40 10° NW 01:12:05 84° NNE 01:16:29 10° ESE visible
26 May - 02:50:25 10° W 02:53:06 16° SW 02:55:46 10° S night (unlit)
26 May - 16:55:53 10° SSE 16:58:17 14° SE 17:00:41 10° E daylight
26 May - 18:34:43 10° SW 18:39:16 86° SE 18:43:46 10° ENE daylight
26 May - 20:17:17 10° WNW 20:21:09 28° NNW 20:25:00 10° NE daylight
26 May - 22:00:24 10° NW 22:03:43 20° N 22:07:00 10° NE visible
26 May - 23:42:02 10° NW 23:46:08 36° NNE 23:50:12 10° E visible
27 May - 01:23:28 10° WNW 01:27:44 50° SW 01:31:59 10° SE visible
27 May - 17:09:47 10° SSW 17:13:42 29° SE 17:17:35 10° ENE daylight
27 May - 18:50:35 10° WSW 18:55:01 54° NNW 18:59:25 10° NE daylight
27 May - 20:33:42 10° WNW 20:37:13 22° N 20:40:43 10° NE daylight
27 May - 22:16:19 10° NW 22:19:51 22° N 22:23:21 10° ENE visible
27 May - 23:57:38 10° NW 00:02:01 58° NNE 00:06:20 10° ESE visible
28 May - 01:39:37 10° W 01:43:14 25° SW 01:46:50 10° S visible
28 May - 17:24:45 10° SW 17:29:14 57° SE 17:33:39 10° ENE daylight
28 May - 19:06:46 10° W 19:10:54 34° NNW 19:15:01 10° NE daylight
28 May - 20:50:01 10° NW 20:53:21 20° N 20:56:40 10° NE visible
28 May - 22:32:01 10° NW 22:35:54 29° NNE 22:39:45 10° E visible
29 May - 00:13:18 10° WNW 00:17:43 78° SW 00:22:07 10° SE visible
29 May - 01:56:56 10° WSW 01:58:36 12° SW 02:00:16 10° SSW night (unlit)
29 May - 16:00:36 10° S 16:03:47 19° SE 16:06:57 10° E daylight
29 May - 17:40:19 10° WSW 17:44:53 77° NW 17:49:24 10° NE daylight
29 May - 19:23:08 10° WNW 19:26:54 25° NNW 19:30:38 10° NE daylight
29 May - 21:06:06 10° NW 21:09:30 21° N 21:12:52 10° NE visible
29 May - 22:47:36 10° NW 22:51:50 42° NNE 22:56:02 10° E visible
30 May - 00:29:12 10° WNW 00:33:18 39° SW 00:37:23 10° SSE visible
30 May - 16:15:01 10° SSW 16:19:14 37° SE 16:23:24 10° ENE daylight
30 May - 17:56:18 10° W 18:00:41 45° NNW 18:05:01 10° NE daylight
30 May - 19:39:32 10° WNW 19:42:59 21° N 19:46:25 10° NE daylight
30 May - 21:21:55 10° NW 21:25:36 24° NNE 21:29:14 10° ENE visible
30 May - 23:03:13 10° NW 23:07:39 72° NNE 23:12:02 10° ESE visible
31 May - 00:45:35 10° W 00:48:44 19° SW 00:51:53 10° S visible
31 May - 14:52:17 10° SSE 14:53:53 12° SE 14:55:30 10° ESE daylight
31 May - 16:30:13 10° SW 16:34:48 73° SE 16:39:19 10° ENE daylight
31 May - 18:12:33 10° W 18:16:36 30° NNW 18:20:35 10° NE daylight
31 May - 19:55:46 10° NW 19:59:07 20° N 20:02:27 10° NE daylight
31 May - 21:37:34 10° NW 21:41:36 32° NNE 21:45:36 10° E visible
31 May - 23:18:56 10° WNW 23:23:18 61° SW 23:27:38 10° SE visible
01 Jun - 15:05:32 10° S 15:09:15 24° SE 15:12:57 10° E daylight
01 Jun - 16:45:56 10° WSW 16:50:29 63° NNW 16:55:00 10° NE daylight
01 Jun - 18:28:56 10° WNW 18:32:37 23° NNW 18:36:15 10° NE daylight
01 Jun - 20:11:44 10° NW 20:15:14 22° N 20:18:42 10° ENE daylight
01 Jun - 21:53:08 10° NW 21:57:30 50° NNE 22:01:47 10° ESE visible
01 Jun - 23:34:57 10° WNW 23:38:49 30° SW 23:42:40 10° SSE visible
02 Jun - 15:20:18 10° SSW 15:24:43 48° SE 15:29:07 10° ENE daylight
02 Jun - 17:02:01 10° W 17:06:19 38° NNW 17:10:34 10° NE daylight
02 Jun - 18:45:17 10° NW 18:48:43 21° N 18:52:07 10° NE daylight
02 Jun - 20:27:28 10° NW 20:31:18 27° NNE 20:35:05 10° ENE daylight
02 Jun - 22:08:46 10° NW 22:13:14 89° NE 22:17:38 10° SE visible
02 Jun - 23:51:42 10° W 23:54:12 15° SW 23:56:40 10° SSW visible
